Weather in Kharkovskoye

Russia / Belgorod Oblast     50°12′10″N   39°02′23″E
temp.,
°C
wind,
m/s
gust,
m/s
humid.,
%
clouds,
%
prec.,
mm/h
press.,
hPa
HPBL,
m
24 july, sat
sat2400:00+16nw22670 0.0 101120
03:00+15wnw22720 0.0 101224
06:00+16wnw237675 0.0 101271
09:00+19wnw2471100 0.0 1013184
12:00+25wnw45475 0.0 10131604
15:00+25nw5748100 0.0 10132096
18:00+20wsw467271 0.1 1014221
21:00+19n33684 0.1 101631
25 july, sun
sun2500:00+16nne33680 0.0 101733
03:00+15n22720 0.0 101820
06:00+15n24761 0.0 101982
09:00+21n345819 0.0 1020618
12:00+24nne344529 0.0 10201417
15:00+25n34380 0.0 10202092
18:00+25n34450 0.0 1020673
21:00+19n33570 0.0 102128
26 july, mon
mon2600:00+17ene22690 0.0 102222
03:00+15ne33732 0.0 102341
06:00+16ne357597 0.0 1024106
09:00+21ene45565 0.0 1023452
12:00+25ne34402 0.0 10231764
15:00+27ne44350 0.0 10222143
18:00+24nne57460 0.0 1022381
21:00+19ne49550 0.0 1022132
27 july, tue
tue2700:00+17ene411580 0.0 1023195
03:00+16ene38570 0.0 1023116
06:00+16ne37670 0.0 1023126
09:00+22ene57510 0.0 1023587
12:00+26ene55390 0.0 10221762
15:00+27ne44350 0.0 10212227
18:00+26nne57440 0.0 1020371
21:00+20ne37520 0.0 102193
28 july, wed
wed2800:00+18e23510 0.0 102129
03:00+18ene225183 0.0 102134
06:00+18ene22590 0.0 102130
09:00+24e33450 0.0 1020388
12:00+27e22340 0.0 10191561
15:00+29nne12300 0.0 10172287
18:00+28n23394 0.0 1016197
21:00+22ene2243100 0.0 101613